Location: Lake Arresoe
(56.0000°N, 12.5000°E)
Time: 09:21:25
(UTC+02:00)

Cosmos 1674 - Pass Details

Date: 30 July 2021
Orbit: 491 x 516 km, 82.5° (Epoch: 26 September)

Event Time Altitude Azimuth Distance (km) Brightness Sun altitude
Rises 02:47:01 0° 353° (N) 2,656 7.5 -13.1°
Reaches altitude 10° 02:49:21 10° 4° (N) 1,764 6.6 -13.0°
Maximum altitude 02:52:50 31° 68° (ENE) 932 4.5 -12.8°
Drops below altitude 10° 02:56:17 10° 132° (SE) 1,749 5.2 -12.6°
Sets 02:58:35 0° 143° (SE) 2,629 6.0 -12.5°
